Weather History for KLXV - March, 2014

Change the Weather History Date:

Sunday, March 30, 2014

  Actual Average Record
Temperature  
Mean Temperature 30 °F -  
Max Temperature 39 °F 40 °F 53 °F (1978)
Min Temperature 21 °F 14 °F -11 °F (1987)
Degree Days  
Heating Degree Days 35 38  
Month to date heating degree days 1263 1235  
Since 1 July heating degree days 8768 8945  
Cooling Degree Days 0 0  
Month to date cooling degree days 0 0  
Year to date cooling degree days 0 0  
Moisture  
Dew Point 16 °F    
Average Humidity 62    
Maximum Humidity 92    
Minimum Humidity 32    
Precipitation  
Precipitation 0.01 in 0.04 in 0.23 in (1993)
Month to date precipitation 1.60 0.91  
Year to date precipitation 5.77 2.23  
Sea Level Pressure  
Sea Level Pressure 29.68 in    
Wind  
Wind Speed 9 mph (South)    
Max Wind Speed 32 mph    
Max Gust Speed 44 mph    
Visibility 7 miles    
Events Snow    
T = Trace of Precipitation, MM = Missing Value Source: NWS Daily Summary

Daily Weather History Graph

Daily Weather History Graph

Search for Another Location

Airport or City:

Trip Planner

Search our weather history database for the weather conditions in past years. The results will help you decide how hot, cold, wet, or windy it might be!

Date:

Astronomy

Mar. 30, 2014 Rise Set
Actual Time 6:52 AM MDT 7:27 PM MDT
Civil Twilight 6:25 AM MDT 7:54 PM MDT
Nautical Twilight 5:54 AM MDT 8:25 PM MDT
Astronomical Twilight 5:21 AM MDT 8:58 PM MDT
Moon 6:40 AM MDT (3/30) 7:42 PM MDT (3/30)
Length of Visible Light 13h 28m
Length of Day
12h 34m
Waning Crescent, 0% of the Moon is Illuminated
Mar 30
Waning Crescent
Mar 30
New
Apr 7
First Quarter
Apr 15
Full
Apr 22
Last Quarter

Hourly Weather History & Observations

Time (MDT) Temp. Windchill Dew Point Humidity Pressure Visibility Wind Dir Wind Speed Gust Speed Precip Events Conditions
12:53 AM 25.0 °F 20.7 °F 8.1 °F 49% 29.91 in 10.0 mi ESE 3.5 mph - N/A   Clear
1:53 AM 27.0 °F 21.6 °F 7.0 °F 43% 29.86 in 10.0 mi ENE 4.6 mph - N/A   Clear
2:53 AM 25.0 °F 20.7 °F 8.1 °F 49% 29.84 in 10.0 mi Variable 3.5 mph - N/A   Clear
3:53 AM 30.9 °F 24.3 °F 7.0 °F 37% 29.76 in 10.0 mi East 6.9 mph - N/A   Clear
4:53 AM 32.0 °F 26.4 °F 9.0 °F 38% 29.77 in 10.0 mi ESE 5.8 mph - N/A   Partly Cloudy
5:53 AM 33.1 °F 26.9 °F 10.0 °F 38% 29.75 in 10.0 mi SE 6.9 mph - N/A   Scattered Clouds
6:53 AM 34.0 °F 29.8 °F 9.0 °F 35% 29.76 in 10.0 mi Variable 4.6 mph - N/A   Clear
7:53 AM 35.1 °F 30.1 °F 9.0 °F 34% 29.76 in 10.0 mi Variable 5.8 mph - N/A   Clear
8:53 AM 36.0 °F 28.0 °F 10.0 °F 34% 29.74 in 10.0 mi SSE 11.5 mph - N/A   Clear
9:53 AM 37.9 °F 30.5 °F 10.0 °F 32% 29.76 in 10.0 mi SSW 11.5 mph 25.3 mph N/A   Clear
10:53 AM 37.0 °F 28.5 °F 12.0 °F 36% 29.77 in 10.0 mi SW 13.8 mph 26.5 mph N/A   Clear
11:53 AM 37.9 °F 29.6 °F 12.0 °F 35% 29.71 in 10.0 mi SSW 13.8 mph 25.3 mph N/A   Clear
12:53 PM 37.9 °F - 10.0 °F 32% 29.69 in 10.0 mi Calm Calm - N/A   Mostly Cloudy
1:53 PM 37.9 °F 27.1 °F 12.0 °F 35% 29.62 in 10.0 mi South 23.0 mph 32.2 mph N/A   Overcast
2:53 PM 37.0 °F 26.2 °F 14.0 °F 39% 29.62 in 10.0 mi SSW 21.9 mph 29.9 mph 0.00 in   Overcast
3:53 PM 36.0 °F 28.5 °F 16.0 °F 44% 29.54 in 10.0 mi SW 10.4 mph 24.2 mph N/A   Overcast
4:53 PM 35.1 °F - 18.0 °F 50% 29.50 in 10.0 mi Calm Calm - N/A   Overcast
5:53 PM 35.1 °F 22.7 °F 14.0 °F 42% 29.42 in 10.0 mi South 25.3 mph 36.8 mph N/A   Overcast
6:38 PM 30.9 °F 18.1 °F 21.0 °F 67% 29.72 in 1.8 mi South 21.9 mph 32.2 mph 0.00 in Snow Light Snow
6:48 PM 28.4 °F 15.4 °F 23.0 °F 80% 29.72 in 1.0 mi South 19.6 mph 26.5 mph 0.00 in Snow Light Snow
6:53 PM 28.0 °F 17.0 °F 24.1 °F 85% 29.51 in 0.8 mi South 13.8 mph 26.5 mph 0.00 in Snow Light Snow
7:08 PM 27.0 °F 18.0 °F 25.0 °F 92% 29.72 in 1.0 mi South 9.2 mph - 0.01 in Snow Light Snow
7:17 PM 27.0 °F 17.3 °F 25.0 °F 92% 29.69 in 0.8 mi SE 10.4 mph - 0.01 in Snow Light Snow
7:21 PM 27.0 °F 18.0 °F 25.0 °F 92% 29.68 in 1.0 mi SE 9.2 mph 18.4 mph 0.01 in Snow Light Snow
7:34 PM 28.0 °F 19.3 °F 24.1 °F 85% 29.68 in 3.0 mi SE 9.2 mph - 0.01 in Snow Light Snow
7:45 PM 28.9 °F 19.8 °F 24.1 °F 82% 29.68 in 7.0 mi SSE 10.4 mph - 0.01 in Snow Light Snow
7:53 PM 30.0 °F 21.1 °F 23.0 °F 75% 29.43 in 8.0 mi South 10.4 mph - 0.01 in Snow Light Snow
8:26 PM 27.0 °F 18.0 °F 25.0 °F 92% 29.69 in 8.0 mi West 9.2 mph 16.1 mph 0.00 in Snow Light Snow
8:38 PM 28.9 °F 19.8 °F 23.0 °F 78% 29.71 in 4.0 mi West 10.4 mph - 0.00 in Snow Light Snow
8:50 PM 26.6 °F 19.1 °F 24.8 °F 93% 29.72 in 1.8 mi West 6.9 mph - 0.00 in Snow Light Snow
8:53 PM 27.0 °F 19.5 °F 24.1 °F 89% 29.50 in 1.8 mi West 6.9 mph - 0.00 in Snow Light Snow
8:59 PM 27.0 °F 18.0 °F 23.0 °F 85% 29.73 in 3.0 mi West 9.2 mph 19.6 mph 0.00 in Snow Light Snow
9:06 PM 26.1 °F 13.6 °F 19.9 °F 78% 29.74 in 1.8 mi West 16.1 mph - 0.00 in Snow Light Snow
9:32 PM 26.1 °F 14.0 °F 12.9 °F 58% 29.76 in 2.5 mi WSW 15.0 mph 33.4 mph 0.00 in   Overcast
9:39 PM 26.1 °F 14.0 °F 12.0 °F 55% 29.76 in 9.0 mi SSW 15.0 mph 25.3 mph 0.00 in   Mostly Cloudy
9:53 PM 23.0 °F 17.0 °F 16.0 °F 74% 29.56 in 10.0 mi SSW 4.6 mph - 0.00 in   Partly Cloudy
10:53 PM 24.1 °F - 12.0 °F 60% 29.55 in 10.0 mi Calm Calm - N/A   Overcast
11:53 PM 23.0 °F 17.0 °F 12.9 °F 65% 29.54 in 10.0 mi SSW 4.6 mph - N/A   Overcast